User: anonymous   Login
Location: Brunembert
(50.7122°N, 1.8935°E)
Time: 02:43:56
(UTC+00:00)
Language:

CZ-2C R/B - Orbit

View from above orbital plane
View from above orbital plane
View from above satellite
View from above satellite

Ground track
Ground track

The orbit data is extracted from the following two-line orbital elements,

1 37766U 11039B   21169.24909179  .00000052  00000-0  18676-4 0  9992
2 37766  98.3333  35.1816 0044717 315.7111  44.0517 14.66574145529039
Epoch (UTC): 18 June 2021 05:58:41
Eccentricity: 0.0044717
inclination: 98.3333°
perigee height: 640 km
apogee height: 703 km
right ascension of ascending node: 35.1816°
argument of perigee: 315.7111°
revolutions per day: 14.66574145
mean anomaly at epoch: 44.0517°
orbit number at epoch: 52903

The dashed part of the orbit path shows where the satellite is in the earth's shadow,  

DLR